sat.trackr.live / text

‹ back to catalog

STARLINK-4546

NORAD 53422 · 2022-097AL

PAYLOAD ACTIVE UNKNOWN

§ Identity

Operator
Country
US
Launch date
2022-08-10
Launch site
AFETR
Launch vehicle
Mass (kg)
RCS (m²)

Purposes: comms

External: N2YO · Heavens-Above · Gunter

§ Orbital elements

Epoch: 2026-05-25T02:33:22.024224Z

Period
95.44 min
Inclination
53.2134°
Eccentricity
0.0001096
Mean motion
15.08842279 rev/d
Perigee alt
539.0 km
Apogee alt
540.5 km
Semi-major
6,917.9 km
B*
2.6728e-4
RAAN
131.0720°
Arg perigee
86.3019°
Mean anomaly
273.8098°
Rev number
21,018

§ Raw data

STARLINK-45461 53422U 22097AL  26145.10650491  .00003969  00000+0  26728-3 0  99942 53422  53.2134 131.0720 0001096  86.3019 273.8098 15.08842279210188

JSON: /api/v1/satellites/53422 · /tle

For live sub-satellite position, see the globe view (requires WebGL).

§ Visibility from observer

Set your observer location to see the next 7 days of passes ≥ 10°. The values pass through the URL so the page stays shareable.

No JS? Fill the form by hand. The geolocation button needs JavaScript.